Weather History for KHEI - March, 2013

Change the Weather History Date:

Monday, March 18, 2013

  Actual Average Record
Temperature  
Mean Temperature 11 °F -  
Max Temperature 20 °F 42 °F 81 °F (2012)
Min Temperature 2 °F 19 °F 2 °F (2013)
Degree Days  
Heating Degree Days 54 35  
Month to date heating degree days 644 680  
Since 1 July heating degree days 6602 6996  
Cooling Degree Days 0 0  
Month to date cooling degree days 0 0  
Year to date cooling degree days 0 0  
Moisture  
Dew Point 1 °F    
Average Humidity 72    
Maximum Humidity 83    
Minimum Humidity 56    
Precipitation  
Precipitation T in 0.02 in 0.56 in (2003)
Month to date precipitation 0.35 0.35  
Year to date precipitation 0.48 1.08  
Sea Level Pressure  
Sea Level Pressure 29.97 in    
Wind  
Wind Speed 15 mph (NW)    
Max Wind Speed 39 mph    
Max Gust Speed 48 mph    
Visibility 10 miles    
Events Snow    
T = Trace of Precipitation, MM = Missing Value Source: NWS Daily Summary

Daily Weather History Graph

Daily Weather History Graph

Search for Another Location

Airport or City:

Trip Planner

Search our weather history database for the weather conditions in past years. The results will help you decide how hot, cold, wet, or windy it might be!

Date:

Astronomy

Mar. 18, 2013 Rise Set
Actual Time 6:56 AM MDT 7:00 PM MDT
Civil Twilight 6:27 AM MDT 7:30 PM MDT
Nautical Twilight 5:52 AM MDT 8:05 PM MDT
Astronomical Twilight 5:16 AM MDT 8:41 PM MDT
Moon 10:39 AM MDT (3/18) 1:20 AM MDT (3/18)
Length of Visible Light 13h 03m
Length of Day
12h 04m
Waxing Crescent, 41% of the Moon is Illuminated
Mar 18
Waxing Crescent
Mar 19
First Quarter
Mar 27
Full
Apr 2
Last Quarter
Apr 10
New

Hourly Weather History & Observations

Time (MDT) Temp. Windchill Dew Point Humidity Pressure Visibility Wind Dir Wind Speed Gust Speed Precip Events Conditions
12:46 AM 6.8 °F -17.3 °F -0.4 °F 72% 29.71 in 9.0 mi WNW 32.2 mph 46.0 mph N/A   Scattered Clouds
12:53 AM 6.1 °F -18.9 °F -0.9 °F 73% 29.85 in 10.0 mi WNW 34.5 mph 46.0 mph N/A   Partly Cloudy
1:53 AM 5.0 °F -21.3 °F -2.0 °F 73% 29.86 in 10.0 mi NW 38.0 mph 46.0 mph 0.00 in Snow Light Snow
2:04 AM 5.0 °F -20.4 °F -2.2 °F 72% 29.73 in 9.0 mi NW 34.5 mph 48.3 mph 0.00 in Snow Light Snow
2:14 AM 5.0 °F -21.3 °F -2.2 °F 72% 29.73 in 8.0 mi NW 38.0 mph 48.3 mph 0.00 in Snow Light Snow
2:28 AM 3.2 °F -23.2 °F -2.2 °F 78% 29.74 in 9.0 mi WNW 35.7 mph 48.3 mph 0.00 in Snow Light Snow
2:53 AM 3.9 °F -21.2 °F -2.9 °F 73% 29.90 in 7.0 mi NW 32.2 mph 48.3 mph 0.00 in Snow Light Snow
3:53 AM 3.0 °F -21.0 °F -4.0 °F 73% 29.93 in 10.0 mi WNW 27.6 mph 39.1 mph 0.00 in   Overcast
4:53 AM 3.9 °F -20.5 °F -2.9 °F 73% 29.94 in 10.0 mi WNW 29.9 mph 38.0 mph N/A   Overcast
5:14 AM 3.2 °F -21.1 °F -2.2 °F 78% 29.83 in 10.0 mi WNW 28.8 mph 38.0 mph N/A   Overcast
5:53 AM 3.9 °F -20.1 °F -2.9 °F 73% 29.97 in 10.0 mi WNW 28.8 mph 36.8 mph N/A   Mostly Cloudy
6:11 AM 3.2 °F -21.1 °F -2.2 °F 78% 29.84 in 10.0 mi NW 28.8 mph 39.1 mph N/A   Scattered Clouds
6:53 AM 3.9 °F -18.5 °F -2.9 °F 73% 30.00 in 10.0 mi WNW 24.2 mph 35.7 mph N/A   Clear
7:53 AM 3.0 °F -18.8 °F -4.0 °F 73% 30.03 in 10.0 mi WNW 21.9 mph 31.1 mph N/A   Clear
8:53 AM 5.0 °F -17.5 °F -2.9 °F 70% 30.05 in 10.0 mi NW 25.3 mph 33.4 mph N/A   Clear
9:53 AM 7.0 °F -14.5 °F -0.9 °F 70% 30.07 in 10.0 mi WNW 24.2 mph 31.1 mph N/A   Clear
10:53 AM 9.0 °F -11.4 °F -0.0 °F 67% 30.07 in 10.0 mi WNW 23.0 mph 29.9 mph N/A   Clear
11:53 AM 12.0 °F -6.0 °F 3.0 °F 67% 30.08 in 10.0 mi WNW 19.6 mph 27.6 mph N/A   Clear
12:53 PM 14.0 °F -2.5 °F 3.9 °F 64% 30.08 in 10.0 mi NW 17.3 mph 25.3 mph N/A   Clear
1:53 PM 16.0 °F 1.7 °F 6.1 °F 65% 30.07 in 10.0 mi WNW 13.8 mph - N/A   Clear
2:53 PM 18.0 °F 3.6 °F 7.0 °F 62% 30.05 in 10.0 mi WNW 15.0 mph - N/A   Clear
3:53 PM 19.9 °F 8.6 °F 9.0 °F 62% 30.04 in 10.0 mi NW 10.4 mph - N/A   Clear
4:53 PM 19.9 °F 12.1 °F 8.1 °F 60% 30.04 in 10.0 mi WNW 5.8 mph - N/A   Clear
5:53 PM 19.0 °F 12.3 °F 7.0 °F 59% 30.04 in 10.0 mi NNW 4.6 mph - N/A   Clear
6:53 PM 16.0 °F - 7.0 °F 68% 30.06 in 10.0 mi Calm Calm - N/A   Clear
7:53 PM 10.0 °F - 3.9 °F 76% 30.08 in 10.0 mi Calm Calm - N/A   Clear
8:53 PM 10.0 °F - 5.0 °F 80% 30.06 in 10.0 mi Calm Calm - N/A   Scattered Clouds
9:53 PM 10.9 °F - 6.1 °F 81% 30.08 in 10.0 mi Calm Calm - N/A   Overcast
10:53 PM 10.9 °F - 7.0 °F 84% 30.07 in 10.0 mi Calm Calm - N/A   Overcast
11:53 PM 14.0 °F - 8.1 °F 77% 30.05 in 10.0 mi Calm Calm - N/A   Overcast